Time,TemperatureF,DewpointF,PressureIn,WindDirection,WindDirectionDegrees,WindSpeedMPH,WindSpeedGustMPH,Humidity,HourlyPrecipIn,Conditions,Clouds,dailyrainin,SoftwareType,DateUTC
2013-02-07 00:00:00,42.3,24.5,27.11,North,0,4.9,4.9,49,0.00,,---,0.00,VWS V14.01,2013-02-07 06:00:00,
2013-02-07 00:05:00,42.3,24.5,27.14,NNW,338,5.4,5.4,49,0.00,,---,0.00,VWS V14.01,2013-02-07 06:05:00,
2013-02-07 00:10:00,41.7,24.5,27.14,North,0,5.8,6.3,50,0.00,,---,0.00,VWS V14.01,2013-02-07 06:10:00,
2013-02-07 00:15:00,41.5,24.3,27.14,NW,315,7.6,7.6,50,0.00,,---,0.00,VWS V14.01,2013-02-07 06:15:00,
2013-02-07 00:20:00,41.4,24.1,27.14,North,0,6.0,10.3,50,0.00,,---,0.00,VWS V14.01,2013-02-07 06:20:00,
2013-02-07 00:25:00,41.2,24.0,27.14,NW,315,8.7,10.3,50,0.00,,---,0.00,VWS V14.01,2013-02-07 06:25:00,
2013-02-07 00:30:00,41.2,24.0,27.14,North,0,8.5,10.3,50,0.00,,---,0.00,VWS V14.01,2013-02-07 06:30:00,
2013-02-07 00:35:00,41.2,24.0,27.14,NNE,22,5.8,8.5,50,0.00,,---,0.00,VWS V14.01,2013-02-07 06:35:00,
2013-02-07 00:40:00,40.5,23.8,27.14,North,0,5.6,8.5,51,0.00,,---,0.00,VWS V14.01,2013-02-07 06:40:00,
2013-02-07 00:45:00,39.9,23.7,27.14,NW,315,8.5,8.7,52,0.00,,---,0.00,VWS V14.01,2013-02-07 06:45:00,
2013-02-07 00:50:00,39.7,23.6,27.14,NW,315,7.6,8.7,52,0.00,,---,0.00,VWS V14.01,2013-02-07 06:50:00,
2013-02-07 00:55:00,39.4,23.7,27.14,NW,315,4.5,8.7,53,0.00,,---,0.00,VWS V14.01,2013-02-07 06:55:00,
2013-02-07 01:00:00,39.2,23.5,27.14,NW,315,7.2,8.7,53,0.00,,---,0.00,VWS V14.01,2013-02-07 07:00:00,
2013-02-07 01:05:00,39.2,23.5,27.14,North,0,7.2,8.7,53,0.00,,---,0.00,VWS V14.01,2013-02-07 07:05:00,
2013-02-07 01:10:00,39.0,23.8,27.14,NNW,338,5.6,8.7,54,0.00,,---,0.00,VWS V14.01,2013-02-07 07:10:00,
2013-02-07 01:15:00,39.0,23.8,27.14,NW,315,5.6,8.7,54,0.00,,---,0.00,VWS V14.01,2013-02-07 07:15:00,
2013-02-07 01:20:00,39.0,23.8,27.14,NNW,338,5.8,6.3,54,0.00,,---,0.00,VWS V14.01,2013-02-07 07:20:00,
2013-02-07 01:25:00,39.0,23.8,27.14,NW,315,6.3,6.3,54,0.00,,---,0.00,VWS V14.01,2013-02-07 07:25:00,
2013-02-07 01:30:00,39.2,24.0,27.14,NNW,338,6.0,8.1,54,0.00,,---,0.00,VWS V14.01,2013-02-07 07:30:00,
2013-02-07 01:35:00,39.4,24.1,27.11,North,0,8.1,10.1,54,0.00,,---,0.00,VWS V14.01,2013-02-07 07:35:00,
2013-02-07 01:40:00,39.4,24.1,27.11,North,0,8.1,10.1,54,0.00,,---,0.00,VWS V14.01,2013-02-07 07:40:00,
2013-02-07 01:45:00,39.4,24.1,27.11,NNW,338,8.1,8.1,54,0.00,,---,0.00,VWS V14.01,2013-02-07 07:45:00,
2013-02-07 01:50:00,39.4,24.1,27.14,NNW,338,5.4,8.1,54,0.00,,---,0.00,VWS V14.01,2013-02-07 07:50:00,
2013-02-07 01:55:00,39.2,24.0,27.14,North,0,7.8,8.7,54,0.00,,---,0.00,VWS V14.01,2013-02-07 07:55:00,
2013-02-07 02:00:00,39.2,24.0,27.14,North,0,7.8,7.8,54,0.00,,---,0.00,VWS V14.01,2013-02-07 08:00:00,
2013-02-07 02:05:00,39.2,24.0,27.14,North,0,8.1,9.6,54,0.00,,---,0.00,VWS V14.01,2013-02-07 08:05:00,
2013-02-07 02:10:00,39.2,24.0,27.14,North,0,11.2,11.2,54,0.00,,---,0.00,VWS V14.01,2013-02-07 08:10:00,
2013-02-07 02:15:00,39.4,24.1,27.14,North,0,10.5,11.2,54,0.00,,---,0.00,VWS V14.01,2013-02-07 08:15:00,
2013-02-07 02:20:00,39.4,24.1,27.14,North,0,8.5,10.5,54,0.00,,---,0.00,VWS V14.01,2013-02-07 08:20:00,
2013-02-07 02:25:00,39.4,24.1,27.14,North,0,6.3,10.5,54,0.00,,---,0.00,VWS V14.01,2013-02-07 08:25:00,
2013-02-07 02:30:00,39.6,24.3,27.14,North,0,10.3,10.7,54,0.00,,---,0.00,VWS V14.01,2013-02-07 08:30:00,
2013-02-07 02:35:00,39.6,24.3,27.14,North,0,10.3,10.7,54,0.00,,---,0.00,VWS V14.01,2013-02-07 08:35:00,
2013-02-07 02:40:00,39.6,24.3,27.14,NNE,22,10.1,10.7,54,0.00,,---,0.00,VWS V14.01,2013-02-07 08:40:00,
2013-02-07 02:45:00,39.7,24.0,27.14,NNW,338,8.5,10.7,53,0.00,,---,0.00,VWS V14.01,2013-02-07 08:45:00,
2013-02-07 02:50:00,39.7,24.0,27.20,NNW,338,6.5,10.7,53,0.00,,---,0.00,VWS V14.01,2013-02-07 08:50:00,
2013-02-07 02:55:00,39.6,23.9,27.20,WNW,292,8.1,10.7,53,0.00,,---,0.00,VWS V14.01,2013-02-07 08:55:00,
2013-02-07 03:00:00,39.4,23.7,27.20,North,0,10.3,10.7,53,0.00,,---,0.00,VWS V14.01,2013-02-07 09:00:00,
2013-02-07 03:05:00,39.2,24.0,27.20,NNW,338,10.5,13.2,54,0.00,,---,0.00,VWS V14.01,2013-02-07 09:05:00,
2013-02-07 03:10:00,39.2,24.0,27.20,NW,315,10.5,13.2,54,0.00,,---,0.00,VWS V14.01,2013-02-07 09:10:00,
2013-02-07 03:15:00,38.5,23.7,27.20,NW,315,13.0,13.2,55,0.00,,---,0.00,VWS V14.01,2013-02-07 09:15:00,
2013-02-07 03:20:00,38.5,24.2,27.20,NW,315,9.0,13.2,56,0.00,,---,0.00,VWS V14.01,2013-02-07 09:20:00,
2013-02-07 03:25:00,38.3,24.4,27.20,North,0,8.1,13.2,57,0.00,,---,0.00,VWS V14.01,2013-02-07 09:25:00,
2013-02-07 03:30:00,38.3,24.4,27.20,North,0,10.1,13.2,57,0.00,,---,0.00,VWS V14.01,2013-02-07 09:30:00,
2013-02-07 03:35:00,38.7,25.2,27.20,NW,315,10.3,10.3,58,0.00,,---,0.00,VWS V14.01,2013-02-07 09:35:00,
2013-02-07 03:40:00,38.7,25.2,27.20,North,0,8.7,10.3,58,0.00,,---,0.00,VWS V14.01,2013-02-07 09:40:00,
2013-02-07 03:45:00,38.7,25.2,27.20,NW,315,10.1,10.3,58,0.00,,---,0.00,VWS V14.01,2013-02-07 09:45:00,
2013-02-07 03:50:00,38.5,25.0,27.20,NW,315,10.1,10.3,58,0.00,,---,0.00,VWS V14.01,2013-02-07 09:50:00,
2013-02-07 03:55:00,38.3,24.8,27.20,North,0,7.6,10.3,58,0.00,,---,0.00,VWS V14.01,2013-02-07 09:55:00,
2013-02-07 04:00:00,38.3,24.8,27.20,North,0,10.7,10.7,58,0.00,,---,0.00,VWS V14.01,2013-02-07 10:00:00,
2013-02-07 04:05:00,38.3,24.8,27.17,North,0,7.6,12.1,58,0.00,,---,0.00,VWS V14.01,2013-02-07 10:05:00,
2013-02-07 04:10:00,38.3,24.8,27.17,North,0,11.0,12.3,58,0.00,,---,0.00,VWS V14.01,2013-02-07 10:10:00,
2013-02-07 04:15:00,38.3,24.8,27.17,NW,315,14.3,14.3,58,0.00,,---,0.00,VWS V14.01,2013-02-07 10:15:00,
2013-02-07 04:20:00,37.6,25.4,27.20,NW,315,13.9,13.9,61,0.00,,---,0.00,VWS V14.01,2013-02-07 10:20:00,
2013-02-07 04:25:00,37.4,25.2,27.20,NW,315,8.1,13.9,61,0.00,,---,0.00,VWS V14.01,2013-02-07 10:25:00,
2013-02-07 04:30:00,37.2,25.4,27.20,NW,315,8.1,13.9,62,0.00,,---,0.00,VWS V14.01,2013-02-07 10:30:00,
2013-02-07 04:35:00,36.9,25.5,27.20,NW,315,10.5,12.8,63,0.00,,---,0.00,VWS V14.01,2013-02-07 10:35:00,
2013-02-07 04:40:00,36.7,25.3,27.17,NW,315,11.2,12.8,63,0.00,,---,0.00,VWS V14.01,2013-02-07 10:40:00,
2013-02-07 04:45:00,36.7,25.3,27.17,NW,315,10.7,12.8,63,0.00,,---,0.00,VWS V14.01,2013-02-07 10:45:00,
2013-02-07 04:50:00,36.7,25.3,27.17,NNE,22,8.7,10.7,63,0.00,,---,0.00,VWS V14.01,2013-02-07 10:50:00,
2013-02-07 04:55:00,35.8,25.5,27.17,NW,315,8.1,10.7,66,0.00,,---,0.00,VWS V14.01,2013-02-07 10:55:00,
2013-02-07 05:00:00,35.6,25.4,27.17,North,0,8.7,10.7,66,0.00,,---,0.00,VWS V14.01,2013-02-07 11:00:00,
2013-02-07 05:05:00,35.4,25.9,27.17,North,0,6.0,7.2,68,0.00,,---,0.00,VWS V14.01,2013-02-07 11:05:00,
2013-02-07 05:10:00,35.4,25.9,27.20,NW,315,7.8,7.8,68,0.00,,---,0.00,VWS V14.01,2013-02-07 11:10:00,
2013-02-07 05:15:00,35.4,25.9,27.20,NW,315,7.8,7.8,68,0.00,,---,0.00,VWS V14.01,2013-02-07 11:15:00,
2013-02-07 05:20:00,34.7,25.9,27.17,North,0,6.5,7.8,70,0.00,,---,0.00,VWS V14.01,2013-02-07 11:20:00,
2013-02-07 05:25:00,34.7,25.9,27.17,NW,315,9.4,9.4,70,0.00,,---,0.00,VWS V14.01,2013-02-07 11:25:00,
2013-02-07 05:30:00,34.7,25.9,27.17,North,0,7.6,9.4,70,0.00,,---,0.00,VWS V14.01,2013-02-07 11:30:00,
2013-02-07 05:35:00,34.5,26.4,27.17,North,0,7.8,9.4,72,0.00,,---,0.00,VWS V14.01,2013-02-07 11:35:00,
2013-02-07 05:40:00,34.5,26.4,27.17,North,0,8.1,9.4,72,0.00,,---,0.00,VWS V14.01,2013-02-07 11:40:00,
2013-02-07 05:45:00,34.5,26.4,27.17,NW,315,8.7,9.4,72,0.00,,---,0.00,VWS V14.01,2013-02-07 11:45:00,
2013-02-07 05:50:00,34.5,26.4,27.20,North,0,5.8,8.7,72,0.00,,---,0.00,VWS V14.01,2013-02-07 11:50:00,
2013-02-07 05:55:00,34.5,26.4,27.20,North,0,6.5,8.7,72,0.00,,---,0.00,VWS V14.01,2013-02-07 11:55:00,
2013-02-07 06:00:00,34.5,26.4,27.20,NNW,338,6.5,8.7,72,0.00,,---,0.00,VWS V14.01,2013-02-07 12:00:00,
2013-02-07 06:05:00,34.3,25.9,27.20,North,0,5.6,6.3,71,0.00,,---,0.00,VWS V14.01,2013-02-07 12:05:00,
2013-02-07 06:10:00,33.8,25.7,27.20,NW,315,5.6,6.3,72,0.00,,---,0.00,VWS V14.01,2013-02-07 12:10:00,
2013-02-07 06:15:00,33.6,26.2,27.20,North,0,5.8,6.3,74,0.00,,---,0.00,VWS V14.01,2013-02-07 12:15:00,
2013-02-07 06:20:00,33.6,26.2,27.20,North,0,7.6,7.6,74,0.00,,---,0.00,VWS V14.01,2013-02-07 12:20:00,
2013-02-07 06:25:00,33.6,26.2,27.20,North,0,6.0,9.0,74,0.00,,---,0.00,VWS V14.01,2013-02-07 12:25:00,
2013-02-07 06:30:00,33.6,26.2,27.20,NW,315,4.3,9.0,74,0.00,,---,0.00,VWS V14.01,2013-02-07 12:30:00,
2013-02-07 06:35:00,33.6,26.2,27.20,North,0,3.4,4.9,74,0.00,,---,0.00,VWS V14.01,2013-02-07 12:35:00,
2013-02-07 06:40:00,32.0,24.3,27.20,North,0,2.5,4.9,73,0.00,,---,0.00,VWS V14.01,2013-02-07 12:40:00,
2013-02-07 06:45:00,32.0,24.3,27.17,NNE,22,2.5,2.5,73,0.00,,---,0.00,VWS V14.01,2013-02-07 12:45:00,
2013-02-07 06:50:00,32.0,24.3,27.20,North,0,2.7,2.7,73,0.00,,---,0.00,VWS V14.01,2013-02-07 12:50:00,
2013-02-07 06:55:00,32.0,24.3,27.20,NW,315,4.9,4.9,73,0.00,,---,0.00,VWS V14.01,2013-02-07 12:55:00,
2013-02-07 07:00:00,32.0,24.3,27.20,SW,225,2.5,4.9,73,0.00,,---,0.00,VWS V14.01,2013-02-07 13:00:00,
2013-02-07 07:05:00,32.0,24.3,27.20,SE,135,0.0,2.5,73,0.00,,---,0.00,VWS V14.01,2013-02-07 13:05:00,
2013-02-07 07:10:00,28.6,22.9,27.20,SE,135,0.0,2.5,79,0.00,,---,0.00,VWS V14.01,2013-02-07 13:10:00,
2013-02-07 07:15:00,27.9,21.9,27.20,North,0,0.0,0.0,78,0.00,,---,0.00,VWS V14.01,2013-02-07 13:15:00,
2013-02-07 07:20:00,27.9,21.9,27.20,NW,315,5.6,5.6,78,0.00,,---,0.00,VWS V14.01,2013-02-07 13:20:00,
2013-02-07 07:25:00,27.9,21.9,27.20,NW,315,6.0,6.3,78,0.00,,---,0.00,VWS V14.01,2013-02-07 13:25:00,
2013-02-07 07:30:00,31.8,31.3,27.20,NW,315,5.4,6.3,98,0.00,,---,0.00,VWS V14.01,2013-02-07 13:30:00,
2013-02-07 07:35:00,31.8,31.3,27.23,NNW,338,7.4,7.4,98,0.00,,---,0.00,VWS V14.01,2013-02-07 13:35:00,
2013-02-07 07:40:00,31.8,31.3,27.23,NW,315,6.5,8.5,98,0.00,,---,0.00,VWS V14.01,2013-02-07 13:40:00,
2013-02-07 07:45:00,31.8,31.3,27.23,NW,315,5.8,8.5,98,0.00,,---,0.00,VWS V14.01,2013-02-07 13:45:00,
2013-02-07 07:50:00,32.7,29.6,27.23,North,0,7.2,7.2,88,0.00,,---,0.00,VWS V14.01,2013-02-07 13:50:00,
2013-02-07 07:55:00,32.5,29.1,27.23,NW,315,3.8,7.2,87,0.00,,---,0.00,VWS V14.01,2013-02-07 13:55:00,
2013-02-07 08:00:00,32.5,29.1,27.23,NW,315,4.0,4.0,87,0.00,,---,0.00,VWS V14.01,2013-02-07 14:00:00,
2013-02-07 08:05:00,32.2,28.5,27.23,North,0,5.4,5.4,86,0.00,,---,0.00,VWS V14.01,2013-02-07 14:05:00,
2013-02-07 08:10:00,32.2,28.5,27.23,NW,315,5.6,5.8,86,0.00,,---,0.00,VWS V14.01,2013-02-07 14:10:00,
2013-02-07 08:15:00,32.2,28.5,27.23,North,0,4.0,5.8,86,0.00,,---,0.00,VWS V14.01,2013-02-07 14:15:00,
2013-02-07 08:20:00,32.2,28.5,27.23,NNW,338,2.7,5.8,86,0.00,,---,0.00,VWS V14.01,2013-02-07 14:20:00,
2013-02-07 08:25:00,36.3,29.8,27.23,North,0,2.9,5.8,77,0.00,,---,0.00,VWS V14.01,2013-02-07 14:25:00,
2013-02-07 08:30:00,36.3,29.8,27.26,NW,315,2.9,5.8,77,0.00,,---,0.00,VWS V14.01,2013-02-07 14:30:00,
2013-02-07 08:35:00,37.9,30.1,27.26,WNW,292,1.6,3.1,73,0.00,,---,0.00,VWS V14.01,2013-02-07 14:35:00,
2013-02-07 08:40:00,37.9,30.1,27.26,WNW,292,2.2,3.1,73,0.00,,---,0.00,VWS V14.01,2013-02-07 14:40:00,
2013-02-07 08:45:00,37.9,30.1,27.26,NW,315,2.7,3.1,73,0.00,,---,0.00,VWS V14.01,2013-02-07 14:45:00,
2013-02-07 08:50:00,40.1,28.9,27.26,NW,315,1.6,4.0,64,0.00,,---,0.00,VWS V14.01,2013-02-07 14:50:00,
2013-02-07 08:55:00,40.1,28.9,27.26,NW,315,2.2,4.0,64,0.00,,---,0.00,VWS V14.01,2013-02-07 14:55:00,
2013-02-07 09:00:00,41.5,29.9,27.26,WNW,292,5.8,5.8,63,0.00,,---,0.00,VWS V14.01,2013-02-07 15:00:00,
2013-02-07 09:05:00,41.7,30.1,27.26,NW,315,4.5,5.8,63,0.00,,---,0.00,VWS V14.01,2013-02-07 15:05:00,
2013-02-07 09:10:00,42.1,30.0,27.26,WNW,292,6.9,7.8,62,0.00,,---,0.00,VWS V14.01,2013-02-07 15:10:00,
2013-02-07 09:15:00,42.1,30.0,27.26,West,270,3.1,7.8,62,0.00,,---,0.00,VWS V14.01,2013-02-07 15:15:00,
2013-02-07 09:20:00,42.1,30.0,27.26,WNW,292,2.9,5.4,62,0.00,,---,0.00,VWS V14.01,2013-02-07 15:20:00,
2013-02-07 09:25:00,44.1,30.2,27.26,West,270,4.0,5.4,58,0.00,,---,0.00,VWS V14.01,2013-02-07 15:25:00,
2013-02-07 09:30:00,44.1,30.2,27.26,West,270,4.3,5.4,58,0.00,,---,0.00,VWS V14.01,2013-02-07 15:30:00,
2013-02-07 09:35:00,44.1,30.2,27.26,WNW,292,4.9,7.2,58,0.00,,---,0.00,VWS V14.01,2013-02-07 15:35:00,
2013-02-07 09:40:00,44.1,30.2,27.26,WNW,292,4.9,7.2,58,0.00,,---,0.00,VWS V14.01,2013-02-07 15:40:00,
2013-02-07 09:45:00,44.1,30.2,27.26,NW,315,7.4,7.4,58,0.00,,---,0.00,VWS V14.01,2013-02-07 15:45:00,
2013-02-07 09:50:00,46.4,29.3,27.26,NNW,338,12.8,15.2,51,0.00,,---,0.00,VWS V14.01,2013-02-07 15:50:00,
2013-02-07 09:55:00,46.4,29.3,27.26,NW,315,12.5,15.2,51,0.00,,---,0.00,VWS V14.01,2013-02-07 15:55:00,
2013-02-07 10:00:00,46.8,29.1,27.26,NW,315,12.5,15.2,50,0.00,,---,0.00,VWS V14.01,2013-02-07 16:00:00,
2013-02-07 10:05:00,47.3,29.6,27.26,NW,315,12.5,15.2,50,0.00,,---,0.00,VWS V14.01,2013-02-07 16:05:00,
2013-02-07 10:10:00,47.3,29.6,27.26,WNW,292,12.5,15.2,50,0.00,,---,0.00,VWS V14.01,2013-02-07 16:10:00,
2013-02-07 10:15:00,47.3,29.6,27.26,NW,315,15.7,15.7,50,0.00,,---,0.00,VWS V14.01,2013-02-07 16:15:00,
2013-02-07 10:20:00,47.3,29.6,27.26,NW,315,9.4,15.7,50,0.00,,---,0.00,VWS V14.01,2013-02-07 16:20:00,
2013-02-07 10:25:00,47.8,29.1,27.26,NW,315,14.5,15.7,48,0.00,,---,0.00,VWS V14.01,2013-02-07 16:25:00,
2013-02-07 10:30:00,47.7,28.4,27.26,NW,315,15.7,15.7,47,0.00,,---,0.00,VWS V14.01,2013-02-07 16:30:00,
2013-02-07 10:35:00,47.7,27.9,27.26,NNW,338,17.0,17.2,46,0.00,,---,0.00,VWS V14.01,2013-02-07 16:35:00,
2013-02-07 10:40:00,47.8,28.1,27.26,NW,315,7.6,17.2,46,0.00,,---,0.00,VWS V14.01,2013-02-07 16:40:00,
2013-02-07 10:45:00,48.7,28.4,27.26,NNE,22,12.8,17.2,45,0.00,,---,0.00,VWS V14.01,2013-02-07 16:45:00,
2013-02-07 10:50:00,48.7,28.4,27.26,North,0,9.0,12.8,45,0.00,,---,0.00,VWS V14.01,2013-02-07 16:50:00,
2013-02-07 10:55:00,49.6,28.6,27.26,NW,315,17.0,17.0,44,0.00,,---,0.00,VWS V14.01,2013-02-07 16:55:00,
2013-02-07 11:00:00,49.6,28.6,27.26,North,0,11.0,17.0,44,0.00,,---,0.00,VWS V14.01,2013-02-07 17:00:00,
2013-02-07 11:05:00,50.9,28.6,27.26,NW,315,8.1,13.0,42,0.00,,---,0.00,VWS V14.01,2013-02-07 17:05:00,
2013-02-07 11:10:00,50.9,28.6,27.26,WNW,292,9.6,13.0,42,0.00,,---,0.00,VWS V14.01,2013-02-07 17:10:00,
2013-02-07 11:15:00,50.9,28.6,27.26,NW,315,9.0,13.0,42,0.00,,---,0.00,VWS V14.01,2013-02-07 17:15:00,
2013-02-07 11:20:00,50.9,28.6,27.26,NW,315,10.3,13.0,42,0.00,,---,0.00,VWS V14.01,2013-02-07 17:20:00,
2013-02-07 11:25:00,50.9,28.6,27.26,NNW,338,14.8,14.8,42,0.00,,---,0.00,VWS V14.01,2013-02-07 17:25:00,
2013-02-07 11:30:00,51.6,27.5,27.26,NNW,338,10.7,17.5,39,0.00,,---,0.00,VWS V14.01,2013-02-07 17:30:00,
2013-02-07 11:35:00,52.2,28.0,27.26,WNW,292,7.2,15.4,39,0.00,,---,0.00,VWS V14.01,2013-02-07 17:35:00,
2013-02-07 11:40:00,52.2,28.0,27.26,NW,315,13.2,15.4,39,0.00,,---,0.00,VWS V14.01,2013-02-07 17:40:00,
2013-02-07 11:45:00,52.0,27.8,27.26,NNW,338,12.1,15.4,39,0.00,,---,0.00,VWS V14.01,2013-02-07 17:45:00,
2013-02-07 11:50:00,52.0,27.8,27.26,NW,315,10.3,12.1,39,0.00,,---,0.00,VWS V14.01,2013-02-07 17:50:00,
2013-02-07 11:55:00,52.7,28.5,27.26,North,0,12.8,13.0,39,0.00,,---,0.00,VWS V14.01,2013-02-07 17:55:00,
2013-02-07 12:00:00,53.2,28.3,27.26,NW,315,12.5,13.0,38,0.00,,---,0.00,VWS V14.01,2013-02-07 18:00:00,
2013-02-07 12:05:00,53.2,28.3,27.26,North,0,6.0,12.5,38,0.00,,---,0.00,VWS V14.01,2013-02-07 18:05:00,
2013-02-07 12:10:00,53.2,28.3,27.26,North,0,12.5,12.5,38,0.00,,---,0.00,VWS V14.01,2013-02-07 18:10:00,
2013-02-07 12:15:00,53.8,28.1,27.26,NW,315,12.3,13.2,37,0.00,,---,0.00,VWS V14.01,2013-02-07 18:15:00,
2013-02-07 12:20:00,53.8,28.1,27.26,NNE,22,8.7,13.2,37,0.00,,---,0.00,VWS V14.01,2013-02-07 18:20:00,
2013-02-07 12:25:00,55.2,29.4,27.26,NW,315,8.7,13.2,37,0.00,,---,0.00,VWS V14.01,2013-02-07 18:25:00,
2013-02-07 12:30:00,55.2,29.4,27.26,North,0,4.7,13.2,37,0.00,,---,0.00,VWS V14.01,2013-02-07 18:30:00,
2013-02-07 12:35:00,55.8,29.2,27.26,NNE,22,13.0,15.2,36,0.00,,---,0.00,VWS V14.01,2013-02-07 18:35:00,
2013-02-07 12:40:00,55.8,29.2,27.26,North,0,5.8,15.2,36,0.00,,---,0.00,VWS V14.01,2013-02-07 18:40:00,
2013-02-07 12:45:00,56.7,29.3,27.26,NW,315,6.3,11.2,35,0.00,,---,0.00,VWS V14.01,2013-02-07 18:45:00,
2013-02-07 12:50:00,56.7,28.6,27.26,North,0,12.3,14.8,34,0.00,,---,0.00,VWS V14.01,2013-02-07 18:50:00,
2013-02-07 12:55:00,56.7,28.6,27.26,North,0,12.3,14.8,34,0.00,,---,0.00,VWS V14.01,2013-02-07 18:55:00,
2013-02-07 13:00:00,56.7,28.6,27.26,NW,315,13.9,14.8,34,0.00,,---,0.00,VWS V14.01,2013-02-07 19:00:00,
2013-02-07 13:05:00,56.7,27.9,27.26,North,0,7.6,14.8,33,0.00,,---,0.00,VWS V14.01,2013-02-07 19:05:00,
2013-02-07 13:10:00,56.7,27.9,27.26,NW,315,7.8,14.8,33,0.00,,---,0.00,VWS V14.01,2013-02-07 19:10:00,
2013-02-07 13:15:00,56.5,25.4,27.26,NW,315,10.1,17.2,30,0.00,,---,0.00,VWS V14.01,2013-02-07 19:15:00,
2013-02-07 13:20:00,56.8,24.9,27.26,North,0,7.4,17.2,29,0.00,,---,0.00,VWS V14.01,2013-02-07 19:20:00,
2013-02-07 13:25:00,56.8,24.9,27.26,North,0,7.6,17.2,29,0.00,,---,0.00,VWS V14.01,2013-02-07 19:25:00,
2013-02-07 13:30:00,57.6,24.7,27.26,North,0,12.5,17.2,28,0.00,,---,0.00,VWS V14.01,2013-02-07 19:30:00,
2013-02-07 13:35:00,57.6,23.0,27.26,NNW,338,10.1,13.0,26,0.00,,---,0.00,VWS V14.01,2013-02-07 19:35:00,
2013-02-07 13:40:00,57.6,23.0,27.26,North,0,8.1,13.0,26,0.00,,---,0.00,VWS V14.01,2013-02-07 19:40:00,
2013-02-07 13:45:00,58.3,24.5,27.26,NW,315,11.0,13.0,27,0.00,,---,0.00,VWS V14.01,2013-02-07 19:45:00,
2013-02-07 13:50:00,58.5,24.6,27.23,North,0,10.1,13.0,27,0.00,,---,0.00,VWS V14.01,2013-02-07 19:50:00,
2013-02-07 13:55:00,58.5,24.6,27.23,NW,315,13.6,13.6,27,0.00,,---,0.00,VWS V14.01,2013-02-07 19:55:00,
2013-02-07 14:00:00,58.5,24.6,27.23,NNW,338,10.1,13.6,27,0.00,,---,0.00,VWS V14.01,2013-02-07 20:00:00,
2013-02-07 14:05:00,58.1,17.3,27.23,North,0,10.1,19.9,20,0.00,,---,0.00,VWS V14.01,2013-02-07 20:05:00,
2013-02-07 14:10:00,58.1,17.3,27.26,NW,315,8.5,19.9,20,0.00,,---,0.00,VWS V14.01,2013-02-07 20:10:00,
2013-02-07 14:15:00,57.9,7.4,27.26,North,0,12.5,19.9,13,0.00,,---,0.00,VWS V14.01,2013-02-07 20:15:00,
2013-02-07 14:20:00,57.9,7.4,27.26,NW,315,15.7,15.7,13,0.00,,---,0.00,VWS V14.01,2013-02-07 20:20:00,
2013-02-07 14:25:00,57.9,7.4,27.26,NW,315,9.8,15.7,13,0.00,,---,0.00,VWS V14.01,2013-02-07 20:25:00,
2013-02-07 14:30:00,57.9,7.4,27.26,North,0,8.5,15.7,13,0.00,,---,0.00,VWS V14.01,2013-02-07 20:30:00,
2013-02-07 14:35:00,57.9,7.4,27.23,NW,315,8.7,15.7,13,0.00,,---,0.00,VWS V14.01,2013-02-07 20:35:00,
2013-02-07 14:40:00,57.9,7.4,27.23,North,0,13.2,15.7,13,0.00,,---,0.00,VWS V14.01,2013-02-07 20:40:00,
2013-02-07 14:45:00,57.9,7.4,27.23,North,0,7.4,15.7,13,0.00,,---,0.00,VWS V14.01,2013-02-07 20:45:00,
2013-02-07 14:50:00,57.9,7.4,27.23,NNW,338,8.7,15.7,13,0.00,,---,0.00,VWS V14.01,2013-02-07 20:50:00,
2013-02-07 14:55:00,58.6,-5.3,27.23,NW,315,15.7,15.7,7,0.00,,---,0.00,VWS V14.01,2013-02-07 20:55:00,
2013-02-07 15:00:00,58.6,-5.3,27.23,NW,315,12.5,15.7,7,0.00,,---,0.00,VWS V14.01,2013-02-07 21:00:00,
2013-02-07 15:05:00,58.1,-5.7,27.23,NW,315,6.3,12.5,7,0.00,,---,0.00,VWS V14.01,2013-02-07 21:05:00,
2013-02-07 15:10:00,58.3,-5.6,27.23,NW,315,10.7,13.2,7,0.00,,---,0.00,VWS V14.01,2013-02-07 21:10:00,
2013-02-07 15:15:00,58.3,-5.6,27.23,North,0,5.6,13.2,7,0.00,,---,0.00,VWS V14.01,2013-02-07 21:15:00,
2013-02-07 15:20:00,58.3,-5.6,27.23,NNW,338,11.0,11.0,7,0.00,,---,0.00,VWS V14.01,2013-02-07 21:20:00,
2013-02-07 15:25:00,58.1,-5.7,27.23,NW,315,9.8,14.5,7,0.00,,---,0.00,VWS V14.01,2013-02-07 21:25:00,
2013-02-07 15:30:00,58.1,-5.7,27.23,NW,315,10.7,14.8,7,0.00,,---,0.00,VWS V14.01,2013-02-07 21:30:00,
2013-02-07 15:35:00,58.1,-5.7,27.23,NNW,338,8.1,9.8,7,0.00,,---,0.00,VWS V14.01,2013-02-07 21:35:00,
2013-02-07 15:40:00,58.3,-5.6,27.23,NNW,338,5.8,9.8,7,0.00,,---,0.00,VWS V14.01,2013-02-07 21:40:00,
2013-02-07 15:45:00,57.9,-5.8,27.23,North,0,8.7,9.8,7,0.00,,---,0.00,VWS V14.01,2013-02-07 21:45:00,
2013-02-07 15:50:00,57.9,-5.8,27.23,NNW,338,8.5,10.1,7,0.00,,---,0.00,VWS V14.01,2013-02-07 21:50:00,
2013-02-07 15:55:00,57.9,-5.8,27.23,NW,315,22.2,22.2,7,0.00,,---,0.00,VWS V14.01,2013-02-07 21:55:00,
2013-02-07 16:00:00,57.9,-5.8,27.23,North,0,13.0,22.2,7,0.00,,---,0.00,VWS V14.01,2013-02-07 22:00:00,
2013-02-07 16:05:00,57.6,-6.1,27.23,NW,315,10.7,10.7,7,0.00,,---,0.00,VWS V14.01,2013-02-07 22:05:00,
2013-02-07 16:10:00,57.6,-6.1,27.23,North,0,9.8,13.0,7,0.00,,---,0.00,VWS V14.01,2013-02-07 22:10:00,
2013-02-07 16:15:00,57.6,-6.1,27.23,NW,315,10.1,13.0,7,0.00,,---,0.00,VWS V14.01,2013-02-07 22:15:00,
2013-02-07 16:20:00,56.7,-6.8,27.23,North,0,12.5,12.5,7,0.00,,---,0.00,VWS V14.01,2013-02-07 22:20:00,
2013-02-07 16:25:00,56.7,-6.8,27.23,NW,315,6.5,12.5,7,0.00,,---,0.00,VWS V14.01,2013-02-07 22:25:00,
2013-02-07 16:30:00,56.7,-6.8,27.23,North,0,7.8,12.5,7,0.00,,---,0.00,VWS V14.01,2013-02-07 22:30:00,
2013-02-07 16:35:00,57.0,-6.5,27.23,North,0,10.1,12.5,7,0.00,,---,0.00,VWS V14.01,2013-02-07 22:35:00,
2013-02-07 16:40:00,56.7,-6.8,27.23,North,0,8.7,12.5,7,0.00,,---,0.00,VWS V14.01,2013-02-07 22:40:00,
2013-02-07 16:45:00,56.7,-6.8,27.23,North,0,4.9,12.5,7,0.00,,---,0.00,VWS V14.01,2013-02-07 22:45:00,
2013-02-07 16:50:00,56.7,-6.8,27.23,NW,315,5.6,6.5,7,0.00,,---,0.00,VWS V14.01,2013-02-07 22:50:00,
2013-02-07 16:55:00,56.1,-7.2,27.23,NW,315,3.8,11.9,7,0.00,,---,0.00,VWS V14.01,2013-02-07 22:55:00,
2013-02-07 17:00:00,55.9,-7.3,27.23,NW,315,6.3,11.9,7,0.00,,---,0.00,VWS V14.01,2013-02-07 23:00:00,
2013-02-07 17:05:00,55.9,-7.3,27.23,NW,315,8.7,11.9,7,0.00,,---,0.00,VWS V14.01,2013-02-07 23:05:00,
2013-02-07 17:10:00,55.4,-7.7,27.23,NW,315,10.1,11.9,7,0.00,,---,0.00,VWS V14.01,2013-02-07 23:10:00,
2013-02-07 17:15:00,55.0,-5.2,27.23,NNE,22,5.4,11.9,8,0.00,,---,0.00,VWS V14.01,2013-02-07 23:15:00,
2013-02-07 17:20:00,54.9,-5.3,27.26,NW,315,5.6,6.3,8,0.00,,---,0.00,VWS V14.01,2013-02-07 23:20:00,
2013-02-07 17:25:00,54.5,-5.6,27.26,North,0,3.8,6.3,8,0.00,,---,0.00,VWS V14.01,2013-02-07 23:25:00,
2013-02-07 17:30:00,54.5,-5.6,27.26,North,0,4.0,6.3,8,0.00,,---,0.00,VWS V14.01,2013-02-07 23:30:00,
2013-02-07 17:35:00,54.5,-5.6,27.26,North,0,3.1,4.0,8,0.00,,---,0.00,VWS V14.01,2013-02-07 23:35:00,
2013-02-07 17:40:00,54.5,-5.6,27.23,NNW,338,2.9,4.0,8,0.00,,---,0.00,VWS V14.01,2013-02-07 23:40:00,
2013-02-07 17:45:00,49.5,-7.0,27.23,NNW,338,2.5,4.0,9,0.00,,---,0.00,VWS V14.01,2013-02-07 23:45:00,
2013-02-07 17:50:00,49.5,-7.0,27.26,NW,315,2.5,2.9,9,0.00,,---,0.00,VWS V14.01,2013-02-07 23:50:00,
2013-02-07 17:55:00,49.5,-7.0,27.26,North,0,3.1,3.1,9,0.00,,---,0.00,VWS V14.01,2013-02-07 23:55:00,
2013-02-07 18:00:00,49.5,-7.0,27.26,North,0,2.9,3.1,9,0.00,,---,0.00,VWS V14.01,2013-02-08 00:00:00,
2013-02-07 18:05:00,44.2,-8.9,27.26,North,0,2.7,3.8,10,0.00,,---,0.00,VWS V14.01,2013-02-08 00:05:00,
2013-02-07 18:10:00,44.2,-8.9,27.26,NNW,338,4.0,4.0,10,0.00,,---,0.00,VWS V14.01,2013-02-08 00:10:00,
2013-02-07 18:15:00,44.2,-8.9,27.26,NW,315,3.6,4.0,10,0.00,,---,0.00,VWS V14.01,2013-02-08 00:15:00,
2013-02-07 18:20:00,41.7,-8.9,27.26,NW,315,2.7,2.7,11,0.00,,---,0.00,VWS V14.01,2013-02-08 00:20:00,
2013-02-07 18:25:00,41.7,-8.9,27.26,NW,315,2.7,2.7,11,0.00,,---,0.00,VWS V14.01,2013-02-08 00:25:00,
2013-02-07 18:30:00,41.7,-8.9,27.26,NW,315,1.3,2.7,11,0.00,,---,0.00,VWS V14.01,2013-02-08 00:30:00,
2013-02-07 18:35:00,41.7,-8.9,27.26,North,0,1.1,2.7,11,0.00,,---,0.00,VWS V14.01,2013-02-08 00:35:00,
2013-02-07 18:40:00,37.6,-12.2,27.26,NW,315,2.5,2.7,11,0.00,,---,0.00,VWS V14.01,2013-02-08 00:40:00,
2013-02-07 18:45:00,37.4,-10.6,27.26,NW,315,1.3,2.7,12,0.00,,---,0.00,VWS V14.01,2013-02-08 00:45:00,
2013-02-07 18:50:00,37.4,-10.6,27.26,NW,315,3.6,3.6,12,0.00,,---,0.00,VWS V14.01,2013-02-08 00:50:00,
2013-02-07 18:55:00,37.0,2.7,27.26,NW,315,3.6,3.8,23,0.00,,---,0.00,VWS V14.01,2013-02-08 00:55:00,
2013-02-07 19:00:00,37.0,2.7,27.26,NW,315,2.7,4.0,23,0.00,,---,0.00,VWS V14.01,2013-02-08 01:00:00,
2013-02-07 19:05:00,36.1,6.2,27.26,NW,315,2.5,3.1,28,0.00,,---,0.00,VWS V14.01,2013-02-08 01:05:00,
2013-02-07 19:10:00,36.1,6.2,27.26,NNW,338,2.7,3.1,28,0.00,,---,0.00,VWS V14.01,2013-02-08 01:10:00,
2013-02-07 19:15:00,36.1,6.2,27.26,NW,315,3.6,3.6,28,0.00,,---,0.00,VWS V14.01,2013-02-08 01:15:00,
2013-02-07 19:20:00,36.1,6.2,27.26,NW,315,3.6,3.8,28,0.00,,---,0.00,VWS V14.01,2013-02-08 01:20:00,
2013-02-07 19:25:00,35.1,8.2,27.23,NW,315,2.7,3.8,32,0.00,,---,0.00,VWS V14.01,2013-02-08 01:25:00,
2013-02-07 19:30:00,35.1,8.2,27.23,NW,315,2.9,3.8,32,0.00,,---,0.00,VWS V14.01,2013-02-08 01:30:00,
2013-02-07 19:35:00,35.1,8.2,27.23,NW,315,2.7,3.8,32,0.00,,---,0.00,VWS V14.01,2013-02-08 01:35:00,
2013-02-07 19:40:00,35.1,8.2,27.23,NW,315,2.9,3.8,32,0.00,,---,0.00,VWS V14.01,2013-02-08 01:40:00,
2013-02-07 19:45:00,34.2,8.7,27.26,North,0,1.3,3.8,34,0.00,,---,0.00,VWS V14.01,2013-02-08 01:45:00,
2013-02-07 19:50:00,34.2,8.7,27.26,NW,315,1.6,3.8,34,0.00,,---,0.00,VWS V14.01,2013-02-08 01:50:00,
2013-02-07 19:55:00,34.2,8.7,27.26,North,0,2.2,3.8,34,0.00,,---,0.00,VWS V14.01,2013-02-08 01:55:00,
2013-02-07 20:00:00,32.9,8.3,27.26,NW,315,3.4,3.8,35,0.00,,---,0.00,VWS V14.01,2013-02-08 02:00:00,
2013-02-07 20:05:00,32.9,8.3,27.26,NNW,338,2.7,3.8,35,0.00,,---,0.00,VWS V14.01,2013-02-08 02:05:00,
2013-02-07 20:10:00,32.9,8.3,27.26,NW,315,1.6,3.8,35,0.00,,---,0.00,VWS V14.01,2013-02-08 02:10:00,
2013-02-07 20:15:00,32.5,7.9,27.26,WNW,292,0.0,3.8,35,0.00,,---,0.00,VWS V14.01,2013-02-08 02:15:00,
2013-02-07 20:20:00,32.5,7.9,27.26,WNW,292,2.0,2.0,35,0.00,,---,0.00,VWS V14.01,2013-02-08 02:20:00,
2013-02-07 20:25:00,30.6,7.4,27.26,WNW,292,0.0,2.0,37,0.00,,---,0.00,VWS V14.01,2013-02-08 02:25:00,
2013-02-07 20:30:00,30.6,7.4,27.26,WNW,292,0.0,2.0,37,0.00,,---,0.00,VWS V14.01,2013-02-08 02:30:00,
2013-02-07 20:35:00,30.6,7.4,27.26,WNW,292,0.0,0.0,37,0.00,,---,0.00,VWS V14.01,2013-02-08 02:35:00,
2013-02-07 20:40:00,30.6,7.4,27.26,North,0,0.0,0.0,37,0.00,,---,0.00,VWS V14.01,2013-02-08 02:40:00,
2013-02-07 20:45:00,30.6,7.4,27.26,North,0,0.0,0.0,37,0.00,,---,0.00,VWS V14.01,2013-02-08 02:45:00,
2013-02-07 20:50:00,30.6,7.4,27.26,North,0,0.0,0.0,37,0.00,,---,0.00,VWS V14.01,2013-02-08 02:50:00,
2013-02-07 20:55:00,28.6,6.8,27.26,North,0,0.0,0.0,39,0.00,,---,0.00,VWS V14.01,2013-02-08 02:55:00,
2013-02-07 21:00:00,28.6,6.8,27.26,NNE,22,1.1,1.1,39,0.00,,---,0.00,VWS V14.01,2013-02-08 03:00:00,
2013-02-07 21:05:00,28.6,6.8,27.26,NNE,22,0.0,1.1,39,0.00,,---,0.00,VWS V14.01,2013-02-08 03:05:00,
2013-02-07 21:10:00,28.6,6.8,27.28,NNE,22,0.0,1.1,39,0.00,,---,0.00,VWS V14.01,2013-02-08 03:10:00,
2013-02-07 21:15:00,28.6,6.8,27.28,NNE,22,0.0,1.1,39,0.00,,---,0.00,VWS V14.01,2013-02-08 03:15:00,
2013-02-07 21:20:00,28.6,6.8,27.28,NNE,22,0.0,0.0,39,0.00,,---,0.00,VWS V14.01,2013-02-08 03:20:00,
2013-02-07 21:25:00,28.2,8.1,27.26,NNE,22,0.0,0.0,42,0.00,,---,0.00,VWS V14.01,2013-02-08 03:25:00,
2013-02-07 21:30:00,27.7,7.6,27.26,NNE,22,0.0,0.0,42,0.00,,---,0.00,VWS V14.01,2013-02-08 03:30:00,
2013-02-07 21:35:00,27.3,7.8,27.26,NW,315,2.7,2.9,43,0.00,,---,0.00,VWS V14.01,2013-02-08 03:35:00,
2013-02-07 21:40:00,27.0,7.5,27.26,NW,315,2.7,2.9,43,0.00,,---,0.00,VWS V14.01,2013-02-08 03:40:00,
2013-02-07 21:45:00,27.0,7.5,27.26,NW,315,2.7,2.9,43,0.00,,---,0.00,VWS V14.01,2013-02-08 03:45:00,
2013-02-07 21:50:00,26.2,7.3,27.26,NNW,338,0.0,1.6,44,0.00,,---,0.00,VWS V14.01,2013-02-08 03:50:00,
2013-02-07 21:55:00,26.6,7.6,27.26,NNW,338,0.0,1.6,44,0.00,,---,0.00,VWS V14.01,2013-02-08 03:55:00,
2013-02-07 22:00:00,26.6,7.6,27.26,NW,315,0.0,1.6,44,0.00,,---,0.00,VWS V14.01,2013-02-08 04:00:00,
2013-02-07 22:05:00,26.6,7.6,27.26,WNW,292,2.5,2.5,44,0.00,,---,0.00,VWS V14.01,2013-02-08 04:05:00,
2013-02-07 22:10:00,26.6,7.6,27.26,WNW,292,2.5,2.5,44,0.00,,---,0.00,VWS V14.01,2013-02-08 04:10:00,
2013-02-07 22:15:00,26.6,7.6,27.26,SW,225,0.0,2.5,44,0.00,,---,0.00,VWS V14.01,2013-02-08 04:15:00,
2013-02-07 22:20:00,26.6,7.6,27.26,SW,225,0.0,0.0,44,0.00,,---,0.00,VWS V14.01,2013-02-08 04:20:00,
2013-02-07 22:25:00,26.6,7.6,27.26,NW,315,1.3,2.7,44,0.00,,---,0.00,VWS V14.01,2013-02-08 04:25:00,
2013-02-07 22:30:00,26.6,7.6,27.26,NW,315,1.3,2.7,44,0.00,,---,0.00,VWS V14.01,2013-02-08 04:30:00,
2013-02-07 22:35:00,26.6,7.6,27.26,NW,315,2.9,2.9,44,0.00,,---,0.00,VWS V14.01,2013-02-08 04:35:00,
2013-02-07 22:40:00,26.6,7.6,27.26,NW,315,2.0,2.9,44,0.00,,---,0.00,VWS V14.01,2013-02-08 04:40:00,
2013-02-07 22:45:00,24.3,6.0,27.26,NW,315,0.0,2.9,45,0.00,,---,0.00,VWS V14.01,2013-02-08 04:45:00,
2013-02-07 22:50:00,24.3,6.0,27.28,NW,315,0.0,0.0,45,0.00,,---,0.00,VWS V14.01,2013-02-08 04:50:00,
2013-02-07 22:55:00,24.3,6.0,27.28,NW,315,0.0,0.0,45,0.00,,---,0.00,VWS V14.01,2013-02-08 04:55:00,
2013-02-07 23:00:00,24.3,6.0,27.28,NW,315,0.0,0.0,45,0.00,,---,0.00,VWS V14.01,2013-02-08 05:00:00,
2013-02-07 23:01:00,24.3,6.0,27.28,NW,315,0.0,0.0,45,0.00,,---,0.00,VWS V14.01,2013-02-08 05:01:00,
2013-02-07 23:06:00,24.3,6.0,27.26,NW,315,0.0,0.0,45,0.00,,---,0.00,VWS V14.01,2013-02-08 05:06:00,
2013-02-07 23:11:00,23.5,6.8,27.26,North,0,2.7,2.7,48,0.00,,---,0.00,VWS V14.01,2013-02-08 05:11:00,
2013-02-07 23:15:00,22.8,8.7,27.25,NW,315,0.0,2.7,54,0.00,,---,0.00,VWS V14.01,2013-02-08 05:15:00,
2013-02-07 23:16:00,23.5,6.8,27.26,North,0,2.5,2.7,48,0.00,,---,0.00,VWS V14.01,2013-02-08 05:16:00,
2013-02-07 23:21:00,23.5,6.8,27.26,North,0,1.6,2.7,48,0.00,,---,0.00,VWS V14.01,2013-02-08 05:21:00,
2013-02-07 23:26:00,23.5,6.8,27.26,NW,315,2.0,2.7,48,0.00,,---,0.00,VWS V14.01,2013-02-08 05:26:00,
2013-02-07 23:30:00,22.3,9.0,27.25,NE,45,4.3,4.3,56,0.00,,---,0.00,VWS V14.01,2013-02-08 05:30:00,
2013-02-07 23:31:00,23.5,7.2,27.26,WNW,292,2.5,2.7,49,0.00,,---,0.00,VWS V14.01,2013-02-08 05:31:00,
2013-02-07 23:36:00,23.5,7.2,27.26,WNW,292,2.5,2.7,49,0.00,,---,0.00,VWS V14.01,2013-02-08 05:36:00,
2013-02-07 23:41:00,21.7,6.4,27.26,NW,315,2.7,2.9,51,0.00,,---,0.00,VWS V14.01,2013-02-08 05:41:00,
2013-02-07 23:45:00,22.8,9.9,27.25,NW,315,2.5,4.3,57,0.00,,---,0.00,VWS V14.01,2013-02-08 05:45:00,
2013-02-07 23:46:00,21.7,6.8,27.26,NW,315,1.3,1.6,52,0.00,,---,0.00,VWS V14.01,2013-02-08 05:46:00,
2013-02-07 23:51:00,22.1,7.6,27.26,NW,315,1.6,1.6,53,0.00,,---,0.00,VWS V14.01,2013-02-08 05:51:00,
2013-02-07 23:56:00,22.1,7.6,27.26,NW,315,1.6,1.6,53,0.00,,---,0.00,VWS V14.01,2013-02-08 05:56:00,